STARLINK-36697

Last updated on Tue Mar 10 2026 00:02:05 GMT+0000 (Coordinated Universal Time)

1 67698U 26025F 26068.58335648 -.01094539 00000+0 -78953-2 0 9991 2 67698 97.2845 180.2481 0001246 69.7060 130.6809 15.75991246 5795

Satellite not in orbit